This demonstration page uses our WeatherBlox Daily Observations layout. Learn more.

Left ArrowRight Arrow

39.51506, -84.39828

Hourly Observations for December 8, 2015

Temp ( °F °C ) Dew Point ( °F °C ) Humidity (%) Winds ( mph kmh ) Pressure ( in mb ) Visibility ( mi km ) Precip ( " mm )
12:15 am 00:15 Cloudy 42 5.5 38 3.5 87 87 SW 3 6 30.15 1021 10 16 N/A
12:35 am 00:35 Cloudy 44 6.8 40 4.3 84 84 SSW 5 7 30.15 1021 10 16 N/A
12:55 am 00:55 Cloudy 47 8.2 41 5.1 81 81 W 3 6 30.15 1021 10 16 N/A
1:15 am 01:15 Cloudy 47 8.2 41 5 80 80 SW 3 6 30.12 1020 10 16 N/A
1:35 am 01:35 Cloudy 47 8.2 41 4.8 79 79 WSW 6 9 30.15 1021 10 16 N/A
1:55 am 01:55 Cloudy 47 8.2 40 4.3 77 77 WSW 7 11 30.15 1021 10 16 N/A
2:15 am 02:15 Cloudy 47 8.2 40 4.5 78 78 S 3 6 30.12 1020 10 16 N/A
2:35 am 02:35 Cloudy 47 8.2 39 4.1 76 76 SW 3 6 30.12 1020 10 16 N/A
2:55 am 02:55 Partly Cloudy 43 6.2 37 3 80 80 N N/A 30.12 1020 10 16 N/A
3:15 am 03:15 Clear 40 4.7 36 2.4 85 85 N N/A 30.12 1020 10 16 N/A
3:35 am 03:35 Clear 39 3.8 35 1.8 87 87 W 5 7 30.15 1021 7 11 N/A
3:55 am 03:55 Clear with Mist and Fog 37 2.8 34 1.1 89 89 S 3 6 30.15 1021 5 8 N/A
4:15 am 04:15 Mostly Cloudy 37 2.6 34 1 89 89 WSW 5 7 30.15 1021 7 11 N/A
4:35 am 04:35 Cloudy 39 4 36 2.3 89 89 N N/A 30.15 1021 7 11 N/A
4:55 am 04:55 Cloudy 39 4.1 36 2.3 88 88 WSW 3 6 30.15 1021 7 11 N/A
5:15 am 05:15 Cloudy 40 4.6 37 2.6 87 87 SSW 3 6 30.12 1020 7 11 N/A
5:35 am 05:35 Cloudy 42 5.5 38 3.1 85 85 SW 3 6 30.12 1020 7 11 N/A
5:55 am 05:55 Cloudy 43 5.9 38 3.4 84 84 SSW 5 7 30.09 1019 7 11 N/A
6:15 am 06:15 Cloudy 43 6.2 38 3.6 84 84 SW 3 6 30.09 1019 7 11 N/A
6:35 am 06:35 Cloudy 42 5.5 38 3.2 85 85 S 5 7 30.09 1019 7 11 N/A
6:55 am 06:55 Cloudy 43 6.2 39 3.7 84 84 SSW 6 9 30.12 1020 7 11 N/A
7:15 am 07:15 Cloudy 43 6.2 39 3.7 84 84 SW 5 7 30.12 1020 7 11 N/A
7:35 am 07:35 Cloudy 43 6.3 39 3.9 85 85 N N/A 30.12 1020 7 11 N/A
7:55 am 07:55 Cloudy 43 6.3 39 3.9 85 85 WSW 5 7 30.12 1020 7 11 N/A
8:15 am 08:15 Cloudy with Mist and Fog 43 6.1 39 3.7 85 85 SSW 3 6 30.12 1020 5 8 N/A
8:35 am 08:35 Mostly Cloudy with Mist and Fog 43 6.2 38 3.6 84 84 SSW 5 7 30.12 1020 5 8 N/A
8:55 am 08:55 Partly Cloudy with Mist and Fog 42 5.5 38 3.1 85 85 SW 5 7 30.12 1020 4 6 N/A
9:15 am 09:15 Hazy 45 7 40 4.7 85 85 SSW 8 13 30.12 1020 5 8 N/A
9:35 am 09:35 Sunny 49 9.3 42 5.8 79 79 SSW 7 11 30.12 1020 7 11 N/A
9:55 am 09:55 Sunny 49 9.6 42 5.6 76 76 SW 9 15 30.12 1020 10 16 N/A
10:15 am 10:15 Sunny 49 9.6 41 5.1 74 74 SW 12 19 30.09 1019 10 16 N/A
10:35 am 10:35 Sunny 49 9.6 40 4.5 71 71 SW 9 15 30.12 1020 10 16 N/A
10:55 am 10:55 Sunny 49 9.6 40 4.2 69 69 SW 10 17 30.09 1019 10 16 N/A
11:15 am 11:15 Partly Cloudy 51 10.6 41 4.8 68 68 SW 12 19 30.09 1019 10 16 N/A
11:35 am 11:35 Sunny 52 11 40 4.7 65 65 SSW 13 20 30.09 1019 10 16 N/A
11:55 am 11:55 Sunny 55 12.5 42 5.4 62 62 SSW 14 22 30.06 1018 10 16 N/A
12:15 pm 12:15 Sunny 55 12.5 41 4.9 60 60 SW 13 20 30.06 1018 10 16 N/A
12:35 pm 12:35 Sunny 55 12.5 40 4.4 58 58 SSW 12 19 30.06 1018 10 16 N/A
12:55 pm 12:55 Sunny 55 12.5 38 3.6 55 55 SW 10 17 30.06 1018 10 16 N/A
1:15 pm 13:15 Sunny 55 12.5 37 2.9 52 52 WSW 10 17 30.03 1017 10 16 N/A
1:35 pm 13:35 Sunny 56 13.5 38 3.2 50 50 SW 9 15 30.03 1017 10 16 N/A
1:55 pm 13:55 Sunny 57 13.8 38 3.4 50 50 SW 10 17 30.03 1017 10 16 N/A
2:15 pm 14:15 Sunny 56 13.1 36 2.2 48 48 SSW 9 15 30.00 1016 10 16 N/A
2:35 pm 14:35 Sunny 55 12.9 35 1.8 47 47 SW 8 13 30.03 1017 10 16 N/A
2:55 pm 14:55 Sunny 56 13.3 36 2.1 47 47 SSW 8 13 30.00 1016 10 16 N/A
3:15 pm 15:15 Sunny 57 13.7 36 2.3 46 46 SSW 9 15 30.00 1016 10 16 N/A
3:35 pm 15:35 Sunny 56 13.1 36 2 47 47 S 8 13 30.00 1016 10 16 N/A
3:55 pm 15:55 Sunny 55 12.5 34 1.2 46 46 SSW 9 15 30.00 1016 10 16 N/A
4:15 pm 16:15 Sunny 55 12.5 34 1.2 46 46 SSW 7 11 30.00 1016 10 16 N/A
4:35 pm 16:35 Sunny 55 12.5 35 1.6 48 48 S 5 7 30.00 1016 10 16 N/A
4:55 pm 16:55 Sunny 55 12.5 36 2.4 50 50 S 5 7 30.00 1016 10 16 N/A
5:15 pm 17:15 Clear 55 12.5 37 2.5 51 51 S 6 9 30.00 1016 10 16 N/A
5:35 pm 17:35 Clear 52 11 36 2.1 55 55 SSW 6 9 30.00 1016 10 16 N/A
5:55 pm 17:55 Clear 52 11 35 1.8 53 53 S 5 7 30.00 1016 10 16 N/A
6:15 pm 18:15 Clear 55 12.5 37 2.6 51 51 S 7 11 30.00 1016 10 16 N/A
6:35 pm 18:35 Clear 54 12.1 36 2.3 51 51 S 7 11 30.00 1016 10 16 N/A
6:55 pm 18:55 Clear 50 10.2 34 1.3 54 54 S 3 6 30.00 1016 10 16 N/A
7:15 pm 19:15 Clear 49 9.6 36 2 59 59 SW 5 7 30.00 1016 10 16 N/A
7:35 pm 19:35 Clear 45 7.1 35 1.7 69 69 SSW 3 6 30.00 1016 10 16 N/A
7:55 pm 19:55 Clear 43 6.1 36 2.1 76 76 N N/A 30.00 1016 10 16 N/A
8:15 pm 20:15 Clear 44 6.6 36 2 73 73 N N/A 30.00 1016 10 16 N/A
8:35 pm 20:35 Clear 44 6.7 36 2.2 73 73 N N/A 30.00 1016 10 16 N/A
8:55 pm 20:55 Clear 46 7.6 37 2.6 71 71 N N/A 30.00 1016 10 16 N/A
9:15 pm 21:15 Clear 45 7.4 36 2.2 70 70 S 5 7 29.97 1015 10 16 N/A
9:35 pm 21:35 Clear 49 9.6 37 2.8 63 63 S 6 9 29.97 1015 10 16 N/A
9:55 pm 21:55 Clear 49 9.6 38 3.2 65 65 S 5 7 29.97 1015 10 16 N/A
10:15 pm 22:15 Clear 49 9.6 36 2.3 61 61 SSW 3 6 29.97 1015 10 16 N/A
10:35 pm 22:35 Clear 43 6.2 35 1.9 74 74 N N/A 29.97 1015 10 16 N/A
10:55 pm 22:55 Clear 42 5.7 35 1.9 77 77 N N/A 29.97 1015 10 16 N/A
11:15 pm 23:15 Clear 38 3.4 33 0.3 80 80 N N/A 30.00 1016 10 16 N/A
11:35 pm 23:35 Clear 39 4 35 1.7 85 85 N N/A 29.94 1014 10 16 N/A
11:55 pm 23:55 Clear 39 4 36 2 87 87 N N/A 29.94 1014 10 16 N/A

Powered by AerisWeather